Location: Wiesbaden
(50.0830°N, 8.2500°E)
Time: 08:38:20
(UTC+02:00)

ISS - Pass Details

Date: 22 May 2019
Orbit: 408 x 418 km, 51.6° (Epoch: 27 May)

Event Time Altitude Azimuth Distance (km) Brightness Sun altitude
Rises 01:05:07 0° 283° (WNW) 2,359 0.3 -19.5°
Reaches altitude 10° 01:07:13 10° 285° (WNW) 1,497 -0.7 -19.5°
Maximum altitude 01:10:34 76° 10° (N) 435 -3.7 -19.6°
Enters shadow 01:11:52 34° 91° (E) 704 -2.7 -19.6°
